Content
SEND FEEDBACK

Daily
Averages
Monthly
Summary
United States of America

KANEOHE STATION, HAWAII


Home > North America > United States > Hawaii
Elevation: 10 feet     Latitude: 21 27N     Longitude: 157 46W

WEATHER
 
SELECT A DAY
Number of Records: 182,436;   Date Range: 1/1/95 - 12/19/14
 
SHARE

PRINT THIS DATA

[ ← Previous Day ]
WEATHER ALMANAC - JANUARY 23, 2013
[ Next Day → ]
[ °C ]   °F
Weather ElementAverageHighLow
Temperature68.8 °F78.8 °F (2:43 pm) (5:05 pm)
Dewpoint59.8 °F66.9 °F (5:57 pm) (7:00 pm)
Humidity72.3 %88 % (5:57 pm)57 % (2:43 pm)
Barometer30.05 in30.10 in (9:15 am)30.01 in (1:57 pm)
Wind Speed7.8 mph12.7 mph (2:57 am)
Wind Gust19.6 mph (2:57 am)
Weather ElementAverage
Visibility8.7 mi
Wind DirectionENE (63.2 °)

Weather ElementTotal
Precipitation---
Heating Degree Days25.6 (Base 65)
Averaged from 37 records on January 23, 2013
WEATHER CONDITIONS BREAKOUT
WIND DIRECTION BREAKOUT
WEATHER BY HOUR - JANUARY 23, 2013
[ °C ]   °F
Local TimeTemperatureDewpointHumidityBarometerVisibilityWind DirectionWind SpeedGust SpeedPrecipitationEventsConditions
1:57 AM69.8 °F57.0 °F64 %30.05 in10.0 miENE (60°)8.1 mphOvercast
2:57 AM68.0 °F61.0 °F78 %30.04 in10.0 miEast (80°)12.7 mph19.6 mph0.00 inOvercast
3:57 AM68.0 °F60.1 °F76 %30.04 in10.0 miEast (80°)9.2 mph16.1 mphMostly Cloudy
4:57 AM68.0 °F60.1 °F76 %30.03 in10.0 miENE (70°)8.1 mph16.1 mph0.00 inMostly Cloudy
5:57 AM69.8 °F57.0 °F64 %30.04 in10.0 miEast (80°)8.1 mphOvercast
6:57 AM71.6 °F55.9 °F58 %30.05 in10.0 miENE (60°)10.4 mph16.1 mph0.00 inOvercast
7:57 AM72.3 °F57.9 °F60 %30.07 in10.0 miNE (40°)8.1 mph0.00 inRainLight Rain
8:24 AM71.6 °F62.6 °F73 %30.09 in6.2 miESE (110°)11.5 mph17.3 mph0.00 inRainLight Rain
8:57 AM70.9 °F63.0 °F76 %30.09 in10.0 miESE (110°)10.4 mph0.00 inOvercast
9:15 AM71.6 °F62.6 °F73 %30.10 in6.2 miEast (100°)6.9 mph0.00 inOvercast
9:39 AM71.6 °F62.6 °F73 %30.10 in6.2 miEast (90°)6.9 mph19.6 mph0.00 inRainRain
9:53 AM71.6 °F62.6 °F73 %30.10 in6.2 miEast (80°)8.1 mph19.6 mph0.00 inOvercast
9:57 AM72.0 °F63.0 °F73 %30.09 in10.0 miENE (60°)11.5 mph19.6 mph0.00 inOvercast
10:16 AM71.6 °F62.6 °F73 %30.10 in6.2 miENE (70°)9.2 mph17.3 mphMostly Cloudy
10:57 AM73.2 °F63.0 °F70 %30.08 in10.0 miEast (80°)8.1 mph0.00 inMostly Cloudy
11:57 AM76.1 °F64.0 °F66 %30.06 in10.0 miVariable5.8 mph17.3 mph0.00 inMostly Cloudy
12:57 PM76.6 °F64.0 °F65 %30.04 in10.0 miEast (100°)9.2 mph18.4 mphScattered Clouds
1:57 PM78.1 °F64.0 °F62 %30.01 in10.0 miEast (100°)11.5 mph19.6 mphMostly Cloudy
2:43 PM78.8 °F62.6 °F57 %30.02 in6.2 miEast (80°)11.5 mph18.4 mphOvercast
2:57 PM78.1 °F63.0 °F60 %30.01 in10.0 miENE (60°)10.4 mphOvercast
3:04 PM78.8 °F64.4 °F61 %30.02 in6.2 miEast (80°)8.1 mphScattered Clouds
3:57 PM77.5 °F64.0 °F63 %30.01 in10.0 miEast (80°)12.7 mph18.4 mphScattered Clouds
4:42 PM77.0 °F66.2 °F69 %30.04 in6.2 miCalm0.00 inRainLight Rain
4:49 PM77.0 °F66.2 °F69 %30.04 in6.2 miNE (40°)5.8 mph0.00 inRainLight Rain
4:57 PM73.8 °F66.0 °F77 %30.02 in10.0 miENE (70°)5.8 mph0.00 inRainLight Rain
5:05 PM0.0 °F0.0 °F30.04 in10.0 miVariable3.5 mph0.00 inRainLight Rain
5:42 PM73.4 °F66.2 °F78 %30.05 in6.2 miEast (90°)4.6 mph0.00 inRainRain
5:57 PM70.7 °F66.9 °F88 %30.03 in10.0 miCalmRainLight Rain
6:48 PM71.6 °F66.2 °F83 %30.04 in6.2 miEast (90°)6.9 mph17.3 mphOvercast
6:57 PM71.2 °F66.9 °F86 %30.03 in10.0 miEast (80°)9.2 mph17.3 mphOvercast
7:04 PM0.0 °F0.0 °F30.05 in6.2 miEast (90°)10.4 mph17.3 mphOvercast
7:57 PM71.6 °F64.9 °F79 %30.05 in10.0 miVariable6.9 mphOvercast
8:57 PM71.6 °F64.9 °F79 %30.06 in10.0 miVariable5.8 mphMostly Cloudy
9:57 PM71.1 °F64.9 °F81 %30.06 in10.0 miESE (120°)10.4 mph17.3 mphOvercast
10:34 PM71.6 °F64.4 °F78 %30.08 in6.2 miCalmRainLight Rain
10:57 PM70.7 °F64.9 °F82 %30.06 in10.0 miVariable4.6 mphOvercast
11:57 PM70.5 °F66.0 °F86 %30.04 in10.0 miEast (90°)8.1 mphOvercast
Hourly data recorded from PHNG, located miles away from Kaneohe Station, Hawaii







STORIES FROM OUR PARTNERS